TimeCST,TemperatureF,Dew PointF,Humidity,Sea Level PressureIn,VisibilityMPH,Wind Direction,Wind SpeedMPH,Gust SpeedMPH,PrecipitationIn,Events,Conditions,WindDirDegrees,DateUTC
12:53 AM,59.0,57.0,93,29.63,10.0,SSW,16.1,29.9,N/A,,Overcast,200,2013-11-17 06:53:00
1:13 AM,59.0,57.2,94,29.62,10.0,SSW,13.8,21.9,N/A,,Mostly Cloudy,200,2013-11-17 07:13:00
1:53 AM,59.0,57.0,93,29.62,10.0,SSW,12.7,21.9,N/A,,Overcast,210,2013-11-17 07:53:00
2:01 AM,59.0,57.2,94,29.63,10.0,SSW,13.8,23.0,N/A,,Overcast,200,2013-11-17 08:01:00
2:16 AM,60.8,57.2,88,29.62,10.0,SSW,12.7,-,N/A,,Overcast,200,2013-11-17 08:16:00
2:53 AM,59.0,57.9,96,29.62,10.0,South,11.5,-,N/A,,Overcast,190,2013-11-17 08:53:00
3:50 AM,59.0,57.2,94,29.61,10.0,South,8.1,-,N/A,,Overcast,180,2013-11-17 09:50:00
3:53 AM,59.0,57.9,96,29.61,10.0,South,10.4,-,N/A,,Overcast,180,2013-11-17 09:53:00
4:53 AM,59.0,57.9,96,29.59,10.0,South,9.2,-,0.05,,Overcast,180,2013-11-17 10:53:00
5:03 AM,57.2,57.2,100,29.59,10.0,South,13.8,19.6,N/A,,Overcast,180,2013-11-17 11:03:00
5:53 AM,59.0,57.9,96,29.55,10.0,South,16.1,24.2,N/A,,Overcast,170,2013-11-17 11:53:00
6:53 AM,59.0,59.0,100,29.53,10.0,South,13.8,27.6,0.07,Rain,Light Rain,170,2013-11-17 12:53:00
7:13 AM,59.0,59.0,100,29.53,10.0,South,16.1,24.2,0.00,,Overcast,170,2013-11-17 13:13:00
7:53 AM,60.1,59.0,96,29.51,10.0,South,17.3,24.2,0.00,,Overcast,180,2013-11-17 13:53:00
8:53 AM,61.0,59.0,93,29.50,10.0,South,17.3,29.9,N/A,,Overcast,180,2013-11-17 14:53:00
9:53 AM,63.0,60.1,90,29.47,10.0,South,19.6,29.9,N/A,,Overcast,190,2013-11-17 15:53:00
10:53 AM,64.0,61.0,90,29.41,10.0,South,21.9,34.5,N/A,,Overcast,190,2013-11-17 16:53:00
11:53 AM,63.0,60.1,90,29.34,10.0,South,23.0,38.0,N/A,,Overcast,180,2013-11-17 17:53:00
12:53 PM,64.0,61.0,90,29.27,10.0,South,20.7,33.4,N/A,,Overcast,180,2013-11-17 18:53:00
1:00 PM,64.4,60.8,88,29.27,10.0,South,20.7,33.4,N/A,,Overcast,180,2013-11-17 19:00:00
1:08 PM,64.4,60.8,88,29.26,10.0,South,21.9,33.4,N/A,,Overcast,180,2013-11-17 19:08:00
1:49 PM,55.4,53.6,94,29.31,1.8,SW,38.0,49.5,0.10,Rain,Rain,220,2013-11-17 19:49:00
1:53 PM,55.0,54.0,96,29.27,1.2,SSW,27.6,49.5,0.12,Rain,Heavy Rain,210,2013-11-17 19:53:00
2:00 PM,55.4,53.6,94,29.26,4.0,SW,23.0,41.4,0.01,Rain,Light Rain,220,2013-11-17 20:00:00
2:53 PM,60.1,55.0,83,29.26,8.0,SW,17.3,35.7,0.02,Rain,Rain,220,2013-11-17 20:53:00
3:53 PM,55.9,48.0,75,29.33,10.0,WSW,42.6,52.9,0.01,,Partly Cloudy,250,2013-11-17 21:53:00
4:35 PM,50.0,42.8,76,29.40,10.0,West,36.8,48.3,N/A,,Mostly Cloudy,260,2013-11-17 22:35:00
4:53 PM,48.9,42.1,77,29.42,10.0,WSW,33.4,41.4,N/A,,Mostly Cloudy,250,2013-11-17 22:53:00
5:53 PM,48.0,41.0,77,29.50,10.0,West,35.7,46.0,N/A,,Overcast,270,2013-11-17 23:53:00
6:53 PM,46.9,39.9,77,29.55,10.0,West,23.0,38.0,N/A,,Overcast,260,2013-11-18 00:53:00
7:53 PM,46.9,39.9,77,29.60,10.0,West,32.2,43.7,N/A,,Overcast,260,2013-11-18 01:53:00
8:53 PM,46.0,37.9,73,29.65,10.0,West,25.3,36.8,N/A,,Overcast,280,2013-11-18 02:53:00
9:15 PM,46.4,37.4,71,29.67,10.0,West,32.2,40.3,N/A,,Overcast,270,2013-11-18 03:15:00
9:53 PM,44.1,36.0,73,29.68,10.0,West,24.2,38.0,N/A,,Mostly Cloudy,270,2013-11-18 03:53:00
10:53 PM,42.1,35.1,76,29.72,10.0,West,27.6,34.5,N/A,,Clear,280,2013-11-18 04:53:00
11:53 PM,41.0,35.1,79,29.74,10.0,West,17.3,-,N/A,,Clear,270,2013-11-18 05:53:00